Chezy-en-Orxois, France

7:48 AM CET on February 17, 2019 (GMT +0100)
Chezy-en-Orxois

Weather History for 07157 - June, 2004

Change the Weather History Date:

Thursday, June 17, 2004

  Actual Average Record
Temperature  
Mean Temperature 68 °F -  
Max Temperature 78 °F 73 °F - ()
Min Temperature 59 °F 55 °F - ()
Cooling Degree Days 4    
Growing Degree Days 18 (Base 50)    
Moisture  
Dew Point 52 °F    
Average Humidity 59    
Maximum Humidity 77    
Minimum Humidity 36    
Precipitation  
Precipitation 0.00 in - - ()
Sea Level Pressure  
Sea Level Pressure 29.98 in    
Wind  
Wind Speed 8 mph ()    
Max Wind Speed 20 mph    
Max Gust Speed -    
Visibility 6.2 miles    
Events      
T = Trace of Precipitation, MM = Missing Value Source: Averaged Metar Reports

Daily Weather History Graph

Daily Weather History Graph

Search for Another Location

Airport or City:

Astronomy

Jun. 17, 2004 Rise Set
Actual Time 5:44 AM CEST 9:56 PM CEST
Civil Twilight 5:02 AM CEST 10:39 PM CEST
Nautical Twilight 4:00 AM CEST 11:41 PM CEST
Astronomical Twilight 2:23 AM CEST 1:18 AM CEST
Moon 4:58 AM CEST 10:13 PM CEST
Length of Visible Light 17h 37m
Length of Day
16h 11m
Waning Crescent, 0% of the Moon is Illuminated
Jun 17
Waning Crescent
Jun 17
New
Jun 25
First Quarter
Jul 2
Full
Jul 9
Last Quarter

Hourly Weather History & Observations

Time (CEST) Temp. Dew Point Humidity Pressure Visibility Wind Dir Wind Speed Gust Speed Precip Events Conditions
12:00 AM 64.4 °F 50.0 °F 59% 30.09 in 6.2 mi WSW 2.3 mph - N/A   Mostly Cloudy
12:30 AM 64.4 °F 50.0 °F 59% 30.09 in - WNW 3.5 mph - N/A   Clear
1:00 AM 62.6 °F 50.0 °F 63% 30.09 in - West 3.5 mph - N/A   Clear
1:30 AM 60.8 °F 51.8 °F 72% 30.09 in - WNW 3.5 mph - N/A   Clear
2:00 AM 60.8 °F 51.8 °F 72% 30.06 in - NW 2.3 mph - N/A   Clear
2:30 AM 59.0 °F 50.0 °F 72% 30.06 in - NW 3.5 mph - N/A   Clear
3:00 AM 59.0 °F 50.0 °F 72% 30.06 in - WNW 4.6 mph - N/A   Clear
3:30 AM 59.0 °F 50.0 °F 72% 30.06 in - WNW 3.5 mph - N/A   Clear
4:00 AM 59.0 °F 50.0 °F 72% 30.04 in - WSW 2.3 mph - N/A   Clear
4:30 AM 59.0 °F 50.0 °F 72% 30.04 in - SW 2.3 mph - N/A   Clear
5:00 AM 59.0 °F 50.0 °F 72% 30.04 in - SSW 3.5 mph - N/A   Clear
5:30 AM 59.0 °F 50.0 °F 72% 30.04 in - SW 4.6 mph - N/A   Clear
6:00 AM 59.0 °F 50.0 °F 72% 30.01 in - SW 4.6 mph - N/A   Clear
6:30 AM 59.0 °F 51.8 °F 77% 30.01 in - SW 3.5 mph - N/A   Clear
7:00 AM 60.8 °F 51.8 °F 72% 30.01 in - WSW 2.3 mph - N/A   Clear
7:30 AM 60.8 °F 53.6 °F 77% 30.01 in - West 6.9 mph - N/A   Clear
8:00 AM 62.6 °F 53.6 °F 72% 30.01 in - West 9.2 mph - N/A   Clear
8:30 AM 64.4 °F 55.4 °F 73% 30.01 in - WSW 10.4 mph - N/A   Clear
9:00 AM 64.4 °F 55.4 °F 73% 30.01 in - WSW 12.7 mph - N/A   Clear
9:30 AM 66.2 °F 55.4 °F 68% 30.01 in - WSW 11.5 mph - N/A   Clear
10:00 AM 68.0 °F 51.8 °F 56% 29.98 in - West 10.4 mph - N/A   Clear
10:30 AM 69.8 °F 51.8 °F 53% 29.98 in - WSW 11.5 mph - N/A   Clear
11:00 AM 71.6 °F 51.8 °F 50% 29.98 in 6.2 mi West 13.8 mph - N/A   Scattered Clouds
11:30 AM 73.4 °F 51.8 °F 47% 29.98 in 6.2 mi West 15.0 mph - N/A   Scattered Clouds
12:00 PM 73.4 °F 51.8 °F 47% 29.98 in 6.2 mi West 13.8 mph - N/A   Scattered Clouds
12:30 PM 73.4 °F 53.6 °F 50% 29.98 in 6.2 mi WNW 12.7 mph - N/A   Scattered Clouds
1:00 PM 73.4 °F 53.6 °F 50% 29.98 in 6.2 mi WNW 16.1 mph - N/A   Scattered Clouds
1:30 PM 73.4 °F 53.6 °F 50% 29.98 in 6.2 mi West 15.0 mph - N/A   Scattered Clouds
2:00 PM 73.4 °F 53.6 °F 50% 29.95 in 6.2 mi WNW 15.0 mph - N/A   Scattered Clouds
2:30 PM 73.4 °F 53.6 °F 50% 29.95 in - WNW 13.8 mph - N/A   Clear
3:00 PM 73.4 °F 51.8 °F 47% 29.95 in - West 16.1 mph - N/A   Clear
3:30 PM 75.2 °F 53.6 °F 47% 29.95 in - WNW 16.1 mph - N/A   Clear
4:00 PM 75.2 °F 50.0 °F 41% 29.92 in - West 18.4 mph - N/A   Clear
4:30 PM 77.0 °F 51.8 °F 41% 29.92 in - West 19.6 mph - N/A   Clear
5:00 PM 77.0 °F 50.0 °F 39% 29.92 in - WNW 13.8 mph - N/A   Clear
5:30 PM 78.8 °F 50.0 °F 36% 29.89 in - WNW 17.3 mph - N/A   Clear
6:00 PM 77.0 °F 50.0 °F 39% 29.89 in - WNW 19.6 mph - N/A   Clear
6:30 PM 77.0 °F 53.6 °F 44% 29.89 in - NW 15.0 mph - N/A   Clear
7:00 PM 75.2 °F 53.6 °F 47% 29.89 in - NW 16.1 mph - N/A   Clear
7:30 PM 73.4 °F 53.6 °F 50% 29.89 in - NW 17.3 mph - N/A   Clear
8:00 PM 69.8 °F 53.6 °F 56% 29.92 in 6.2 mi NW 19.6 mph - N/A   Partly Cloudy
8:30 PM 68.0 °F 51.8 °F 56% 29.92 in 6.2 mi NW 18.4 mph - N/A   Partly Cloudy
9:00 PM 66.2 °F 51.8 °F 60% 29.92 in 6.2 mi NW 17.3 mph - N/A   Partly Cloudy
9:30 PM 64.4 °F 51.8 °F 64% 29.92 in 6.2 mi NW 11.5 mph - N/A   Scattered Clouds
10:00 PM 62.6 °F 51.8 °F 68% 29.92 in 6.2 mi NW 11.5 mph - N/A   Scattered Clouds
10:30 PM 62.6 °F 50.0 °F 63% 29.92 in 6.2 mi NW 11.5 mph - N/A   Mostly Cloudy
11:00 PM 60.8 °F 50.0 °F 68% 29.92 in 6.2 mi WNW 9.2 mph - N/A   Mostly Cloudy
11:30 PM 60.8 °F 50.0 °F 68% 29.92 in 6.2 mi NW 8.1 mph - N/A   Scattered Clouds